• In Österreich
  • Länderverzeichnis
  • Für 7 Tage
  • Wassertemperatur
  • Satellitenkarten
  • Wetterkarte
  • News
  • Widgets
  • user-avatar
    Anmelden

    Stündliche Wetter Santiago del Estero

    Heute, 23 Juni, Samstag

    Zeit Temperatur Niederschläge Wind Luftdruck Luftfeuchtigkeit
    00:00 +18°C° 0 mm 1 m/S 738 mmHg 90%
    01:00 +16°C° 0 mm 2 m/S 738 mmHg 91%
    02:00 +16°C° 0 mm 2 m/S 738 mmHg 93%
    03:00 +16°C° 0 mm 2 m/S 738 mmHg 93%
    04:00 +16°C° 0 mm 3 m/S 738 mmHg 93%
    05:00 +16°C° 0 mm 3 m/S 738 mmHg 93%
    06:00 +16°C° 0 mm 3 m/S 739 mmHg 91%
    07:00 +15°C° 0 mm 4 m/S 740 mmHg 89%
    08:00 +15°C° 0 mm 4 m/S 740 mmHg 87%
    09:00 +15°C° 0 mm 5 m/S 741 mmHg 82%
    10:00 +16°C° 0 mm 5 m/S 742 mmHg 77%
    11:00 +17°C° 0 mm 5 m/S 742 mmHg 72%
    12:00 +17°C° 0,1 mm 5 m/S 743 mmHg 71%
    13:00 +17°C° 0,1 mm 5 m/S 743 mmHg 69%
    14:00 +17°C° 0,1 mm 5 m/S 743 mmHg 68%
    15:00 +17°C° 0 mm 5 m/S 744 mmHg 62%
    16:00 +18°C° 0 mm 4 m/S 745 mmHg 56%
    17:00 +18°C° 0 mm 4 m/S 745 mmHg 50%
    18:00 +18°C° 0 mm 4 m/S 747 mmHg 50%
    19:00 +17°C° 0 mm 4 m/S 748 mmHg 49%
    20:00 +15°C° 0 mm 4 m/S 749 mmHg 48%
    21:00 +14°C° 0 mm 3 m/S 750 mmHg 49%
    22:00 +13°C° 0 mm 3 m/S 750 mmHg 51%
    23:00 +12°C° 0 mm 3 m/S 751 mmHg 52%

    Morgen, 24 Juni, Sonntag

    Zeit Temperatur Niederschläge Wind Luftdruck Luftfeuchtigkeit
    00:00 +12°C° 0 mm 3 m/S 751 mmHg 54%
    01:00 +11°C° 0 mm 3 m/S 752 mmHg 55%
    02:00 +11°C° 0 mm 3 m/S 752 mmHg 57%
    03:00 +10°C° 0 mm 2 m/S 751 mmHg 61%
    04:00 +9°C° 0 mm 2 m/S 751 mmHg 64%
    05:00 +9°C° 0 mm 2 m/S 751 mmHg 68%
    06:00 +9°C° 0 mm 2 m/S 751 mmHg 69%
    07:00 +10°C° 0 mm 1 m/S 751 mmHg 70%
    08:00 +10°C° 0 mm 1 m/S 751 mmHg 70%
    09:00 +10°C° 0 mm 2 m/S 751 mmHg 65%
    10:00 +13°C° 0 mm 2 m/S 751 mmHg 59%
    11:00 +13°C° 0 mm 3 m/S 750 mmHg 53%
    12:00 +14°C° 0 mm 3 m/S 749 mmHg 49%
    13:00 +16°C° 0 mm 3 m/S 747 mmHg 46%
    14:00 +17°C° 0 mm 3 m/S 746 mmHg 43%
    15:00 +16°C° 0 mm 3 m/S 745 mmHg 44%
    16:00 +16°C° 0 mm 3 m/S 744 mmHg 45%
    17:00 +16°C° 0 mm 3 m/S 744 mmHg 47%
    18:00 +13°C° 0 mm 3 m/S 744 mmHg 50%
    19:00 +13°C° 0 mm 2 m/S 744 mmHg 54%
    20:00 +12°C° 0 mm 2 m/S 745 mmHg 57%
    21:00 +10°C° 0 mm 2 m/S 745 mmHg 58%
    22:00 +10°C° 0 mm 2 m/S 746 mmHg 59%
    23:00 +10°C° 0 mm 3 m/S 746 mmHg 60%

    übermorgen, 25 Juni, Montag

    Zeit Temperatur Niederschläge Wind Luftdruck Luftfeuchtigkeit
    00:00 +9°C° 0 mm 2 m/S 746 mmHg 62%
    01:00 +9°C° 0 mm 2 m/S 746 mmHg 64%
    02:00 +8°C° 0 mm 2 m/S 746 mmHg 65%
    03:00 +8°C° 0 mm 2 m/S 746 mmHg 67%
    04:00 +7°C° 0 mm 2 m/S 746 mmHg 68%
    05:00 +7°C° 0 mm 2 m/S 746 mmHg 69%
    06:00 +7°C° 0 mm 2 m/S 746 mmHg 68%
    07:00 +8°C° 0 mm 1 m/S 747 mmHg 68%
    08:00 +8°C° 0 mm 1 m/S 747 mmHg 67%
    09:00 +11°C° 0 mm 1 m/S 748 mmHg 60%
    10:00 +13°C° 0 mm 1 m/S 748 mmHg 54%
    11:00 +15°C° 0 mm 1 m/S 748 mmHg 47%
    12:00 +16°C° 0 mm 1 m/S 747 mmHg 44%
    13:00 +19°C° 0 mm 1 m/S 747 mmHg 40%
    14:00 +20°C° 0 mm 1 m/S 746 mmHg 37%
    15:00 +19°C° 0 mm 1 m/S 746 mmHg 39%
    16:00 +18°C° 0 mm 2 m/S 746 mmHg 41%
    17:00 +17°C° 0 mm 2 m/S 745 mmHg 42%
    18:00 +16°C° 0 mm 1 m/S 746 mmHg 47%
    19:00 +14°C° 0 mm 1 m/S 746 mmHg 52%
    20:00 +12°C° 0 mm 1 m/S 746 mmHg 57%
    21:00 +12°C° 0 mm 1 m/S 746 mmHg 59%
    22:00 +12°C° 0 mm 1 m/S 747 mmHg 60%
    23:00 +10°C° 0 mm 2 m/S 747 mmHg 62%

    26 Juni, Dienstag

    Zeit Temperatur Niederschläge Wind Luftdruck Luftfeuchtigkeit
    00:00 +11°C° 0 mm 1 m/S 746 mmHg 64%
    01:00 +10°C° 0 mm 1 m/S 746 mmHg 67%
    02:00 +10°C° 0 mm 1 m/S 745 mmHg 69%
    03:00 +10°C° 0 mm 1 m/S 745 mmHg 71%
    04:00 +9°C° 0 mm 1 m/S 744 mmHg 73%
    05:00 +9°C° 0 mm 1 m/S 744 mmHg 75%
    06:00 +9°C° 0 mm 1 m/S 744 mmHg 74%
    07:00 +10°C° 0 mm 1 m/S 745 mmHg 74%
    08:00 +10°C° 0 mm 1 m/S 745 mmHg 73%
    09:00 +12°C° 0 mm 2 m/S 745 mmHg 65%
    10:00 +15°C° 0 mm 2 m/S 745 mmHg 57%
    11:00 +17°C° 0 mm 3 m/S 745 mmHg 50%
    12:00 +18°C° 0 mm 3 m/S 744 mmHg 47%
    13:00 +20°C° 0 mm 3 m/S 743 mmHg 45%
    14:00 +21°C° 0 mm 4 m/S 742 mmHg 42%
    15:00 +20°C° 0 mm 3 m/S 742 mmHg 45%
    16:00 +20°C° 0 mm 2 m/S 742 mmHg 48%
    17:00 +19°C° 0 mm 2 m/S 742 mmHg 51%
    18:00 +19°C° 0 mm 1 m/S 742 mmHg 55%
    19:00 +16°C° 0 mm 1 m/S 742 mmHg 60%
    20:00 +15°C° 0 mm 1 m/S 743 mmHg 64%
    21:00 +15°C° 0 mm 2 m/S 743 mmHg 67%
    22:00 +14°C° 0 mm 2 m/S 743 mmHg 69%
    23:00 +14°C° 0 mm 2 m/S 743 mmHg 71%

    27 Juni, Mittwoch

    Zeit Temperatur Niederschläge Wind Luftdruck Luftfeuchtigkeit
    00:00 +13°C° 0 mm 2 m/S 742 mmHg 75%
    01:00 +13°C° 0 mm 1 m/S 742 mmHg 79%
    02:00 +12°C° 0 mm 1 m/S 742 mmHg 83%
    03:00 +12°C° 0 mm 1 m/S 742 mmHg 85%
    04:00 +12°C° 0 mm 1 m/S 742 mmHg 87%
    05:00 +11°C° 0 mm 1 m/S 742 mmHg 89%
    06:00 +12°C° 0 mm 1 m/S 743 mmHg 88%
    07:00 +13°C° 0 mm 1 m/S 744 mmHg 87%
    08:00 +13°C° 0 mm 1 m/S 744 mmHg 86%
    09:00 +16°C° 0 mm 1 m/S 744 mmHg 78%
    10:00 +18°C° 0 mm 2 m/S 745 mmHg 70%
    11:00 +20°C° 0 mm 2 m/S 745 mmHg 62%
    12:00 +23°C° 0 mm 2 m/S 744 mmHg 57%
    13:00 +24°C° 0 mm 3 m/S 744 mmHg 52%
    14:00 +25°C° 0 mm 3 m/S 743 mmHg 47%
    15:00 +25°C° 0 mm 3 m/S 743 mmHg 48%
    16:00 +24°C° 0 mm 2 m/S 743 mmHg 50%
    17:00 +24°C° 0 mm 2 m/S 743 mmHg 52%
    18:00 +21°C° 0 mm 2 m/S 743 mmHg 56%
    19:00 +20°C° 0 mm 2 m/S 743 mmHg 60%
    20:00 +18°C° 0 mm 2 m/S 744 mmHg 65%
    21:00 +18°C° 0 mm 2 m/S 744 mmHg 68%
    22:00 +17°C° 0 mm 3 m/S 744 mmHg 71%
    23:00 +17°C° 0 mm 3 m/S 744 mmHg 74%

    28 Juni, Donnerstag

    Zeit Temperatur Niederschläge Wind Luftdruck Luftfeuchtigkeit
    00:00 +16°C° 0 mm 3 m/S 743 mmHg 79%
    01:00 +16°C° 0 mm 3 m/S 743 mmHg 84%
    02:00 +14°C° 0 mm 3 m/S 743 mmHg 88%
    03:00 +14°C° 0 mm 3 m/S 742 mmHg 91%
    04:00 +15°C° 0 mm 2 m/S 742 mmHg 93%
    05:00 +15°C° 0 mm 2 m/S 742 mmHg 95%
    06:00 +15°C° 0 mm 2 m/S 742 mmHg 95%
    07:00 +14°C° 0 mm 3 m/S 742 mmHg 95%
    08:00 +14°C° 0 mm 3 m/S 742 mmHg 95%
    09:00 +17°C° 0 mm 3 m/S 742 mmHg 88%
    10:00 +19°C° 0 mm 4 m/S 742 mmHg 81%
    11:00 +20°C° 0 mm 5 m/S 742 mmHg 74%
    12:00 +21°C° 0 mm 5 m/S 741 mmHg 71%
    13:00 +22°C° 0 mm 5 m/S 740 mmHg 68%
    14:00 +22°C° 0 mm 5 m/S 739 mmHg 65%
    15:00 +22°C° 0 mm 4 m/S 739 mmHg 67%
    16:00 +22°C° 0 mm 4 m/S 739 mmHg 69%
    17:00 +21°C° 0 mm 3 m/S 739 mmHg 71%
    18:00 +21°C° 0 mm 3 m/S 739 mmHg 74%
    19:00 +20°C° 0 mm 2 m/S 739 mmHg 77%
    20:00 +20°C° 0 mm 2 m/S 739 mmHg 81%
    21:00 +20°C° 0 mm 2 m/S 739 mmHg 83%
    22:00 +19°C° 0 mm 2 m/S 739 mmHg 85%
    23:00 +20°C° 0 mm 1 m/S 739 mmHg 87%
    Mehr zeigen